#�ϑ�����,���ϕ���,���ϕ���,�ő啗��,�ő啗����������,�ő�u�ԕ���,�ő�u�ԕ�����������
#(�N����),(m/s)   ,(16����),(m/s)   ,(16����)        ,(m/s)       ,(16����)            
2015/1/8 0:01,1.7,13,1.8,13,3.3,16
2015/1/8 0:02,1.9,13,1.9,11,6,12
2015/1/8 0:03,2.1,14,2.1,14,7.2,1
2015/1/8 0:04,2.1,14,2.2,14,5.7,1
2015/1/8 0:05,2,14,2.1,14,4.3,9
2015/1/8 0:06,2.2,13,2.2,14,4.3,8
2015/1/8 0:07,2.1,14,2.2,14,2.9,1
2015/1/8 0:08,2.5,16,2.5,16,7.2,2
2015/1/8 0:09,2.9,16,2.9,16,8.5,15
2015/1/8 0:10,3.1,16,3.1,16,7.6,15
2015/1/8 0:11,3.4,16,3.4,16,10.6,16
2015/1/8 0:12,3.6,1,3.6,16,8.4,16
2015/1/8 0:13,3.3,2,3.5,16,2.2,5
2015/1/8 0:14,3.1,2,3.2,16,3.1,5
2015/1/8 0:15,3.2,2,3.2,16,3.9,4
2015/1/8 0:16,3.3,2,3.3,16,6.9,2
2015/1/8 0:17,3.7,2,3.7,2,7.2,3
2015/1/8 0:18,3.6,1,3.7,2,4.3,14
2015/1/8 0:19,3.3,1,3.6,2,5.4,15
2015/1/8 0:20,3.2,1,3.3,2,3.2,3
2015/1/8 0:21,3.2,2,3.2,2,9.2,15
2015/1/8 0:22,3.4,1,3.4,2,11.6,16
2015/1/8 0:23,3.8,16,3.8,16,7.2,16
2015/1/8 0:24,3.9,16,4,16,4.7,12
2015/1/8 0:25,3.8,15,3.9,16,3.8,4
2015/1/8 0:26,3.5,15,3.8,16,2.9,13
2015/1/8 0:27,3.3,14,3.5,16,2.6,13
2015/1/8 0:28,3.1,14,3.3,16,2.4,13
2015/1/8 0:29,3,14,3.1,16,2.4,9
2015/1/8 0:30,2.9,13,3,16,2.4,8
2015/1/8 0:31,2.5,13,2.9,16,3.5,10
2015/1/8 0:32,2.3,12,2.5,16,8.9,9
2015/1/8 0:33,2,12,2.2,16,5.2,14
2015/1/8 0:34,1.8,12,1.9,16,2.4,14
2015/1/8 0:35,1.7,13,1.8,16,2.5,16
2015/1/8 0:36,1.9,13,1.9,15,4.2,16
2015/1/8 0:37,1.8,13,1.9,14,2.7,16
2015/1/8 0:38,1.8,13,1.8,14,2.4,13
2015/1/8 0:39,1.8,13,1.8,14,1.6,11
2015/1/8 0:40,1.8,13,1.8,13,1.5,13
2015/1/8 0:41,1.7,13,1.8,13,3.6,14
2015/1/8 0:42,1.6,14,1.7,12,6.4,4
2015/1/8 0:43,1.8,15,1.8,12,8.4,16
2015/1/8 0:44,2.2,15,2.2,15,9.5,1
2015/1/8 0:45,2.4,16,2.4,16,8.2,16
2015/1/8 0:46,2.3,16,2.4,16,2.7,11
2015/1/8 0:47,2.2,16,2.3,16,3.5,2
2015/1/8 0:48,2.2,1,2.2,16,2.1,16
2015/1/8 0:49,2.2,1,2.2,16,1.8,7
2015/1/8 0:50,2.3,1,2.3,16,2.4,8
2015/1/8 0:51,2.3,2,2.3,16,2.4,7
2015/1/8 0:52,2.2,1,2.3,16,2.4,12
2015/1/8 0:53,1.9,1,2.2,16,2.7,15
2015/1/8 0:54,1.6,1,1.9,16,3.5,15
2015/1/8 0:55,1.5,16,1.6,16,4.8,16
2015/1/8 0:56,1.9,1,1.9,16,10.9,16
2015/1/8 0:57,2.4,16,2.4,16,10.9,16
2015/1/8 0:58,2.8,16,2.8,16,9.2,1
2015/1/8 0:59,2.8,16,2.8,16,2.6,16
2015/1/8 1:00,2.8,15,2.8,16,2.1,9
2015/1/8 1:01,2.9,15,2.9,15,4.7,9
2015/1/8 1:02,3,15,3,15,4.2,13
2015/1/8 1:03,3,15,3,15,5.6,6
2015/1/8 1:04,3,15,3.1,15,3,3
2015/1/8 1:05,2.8,15,3,15,1.9,2
2015/1/8 1:06,2.5,16,2.9,15,3.5,1
2015/1/8 1:07,2,16,2.4,15,4.3,16
2015/1/8 1:08,2,15,2,15,6.2,11
2015/1/8 1:09,2.4,14,2.4,15,7.7,12
2015/1/8 1:10,2.8,14,2.8,15,8.5,12
2015/1/8 1:11,2.9,15,2.9,15,4.9,15
2015/1/8 1:12,3.1,15,3.1,15,6.8,14
2015/1/8 1:13,3,15,3,15,4.5,13
2015/1/8 1:14,3.1,14,3.1,15,6.7,15
2015/1/8 1:15,3.2,14,3.3,14,3.9,12
2015/1/8 1:16,3.3,13,3.3,14,7.2,7
2015/1/8 1:17,3.5,13,3.5,13,6.9,8
2015/1/8 1:18,3.4,12,3.5,13,5.2,10
2015/1/8 1:19,3.1,12,3.4,13,7.9,16
2015/1/8 1:20,3,13,3.1,13,9.8,1
2015/1/8 1:21,2.9,14,3,13,3.9,3
2015/1/8 1:22,2.7,11,2.8,13,3.1,6
2015/1/8 1:23,2.6,4,2.7,13,2.2,1
2015/1/8 1:24,2.4,5,2.6,13,2.7,16
2015/1/8 1:25,2.4,5,2.4,13,3.5,14
2015/1/8 1:26,2.5,2,2.5,13,5.2,15
2015/1/8 1:27,2.3,1,2.4,12,4.7,12
2015/1/8 1:28,2.2,2,2.3,12,2.7,4
2015/1/8 1:29,2.2,1,2.2,13,4.7,14
2015/1/8 1:30,2,16,2.1,13,3.5,13
2015/1/8 1:31,1.9,15,2,14,2.5,13
2015/1/8 1:32,2,14,2,10,5,11
2015/1/8 1:33,2.2,13,2.2,4,5.5,8
2015/1/8 1:34,2.4,13,2.4,4,5.6,7
2015/1/8 1:35,2.5,12,2.6,13,6.4,8
2015/1/8 1:36,2.4,11,2.5,13,2.5,9
2015/1/8 1:37,2.4,12,2.4,13,4.3,2
2015/1/8 1:38,2.4,12,2.4,13,3,2
2015/1/8 1:39,2.4,12,2.4,13,3.9,1
2015/1/8 1:40,2.4,13,2.4,13,6.3,15
2015/1/8 1:41,2.5,13,2.5,13,5.7,13
2015/1/8 1:42,2.5,12,2.6,13,6.2,8
2015/1/8 1:43,2.4,13,2.5,13,5.2,9
2015/1/8 1:44,2.3,14,2.5,13,5.1,9
2015/1/8 1:45,2.2,15,2.3,12,4.2,1
2015/1/8 1:46,2.4,15,2.4,12,7,16
2015/1/8 1:47,2.7,15,2.7,15,7.7,16
2015/1/8 1:48,3,15,3,15,8.4,16
2015/1/8 1:49,3.2,15,3.2,15,7.5,16
2015/1/8 1:50,3.2,15,3.3,15,5.5,15
2015/1/8 1:51,3.3,15,3.3,15,7.1,16
2015/1/8 1:52,3.9,15,3.9,15,12.1,15
2015/1/8 1:53,4.2,15,4.2,15,7.8,14
2015/1/8 1:54,4.2,15,4.2,15,3.5,12
2015/1/8 1:55,4.2,15,4.2,15,3.3,13
2015/1/8 1:56,4.1,14,4.2,15,3.8,11
2015/1/8 1:57,3.8,14,4,15,3.6,9
2015/1/8 1:58,3.5,14,3.7,15,5.1,10
2015/1/8 1:59,3.4,13,3.5,15,4.9,12
2015/1/8 2:00,3.1,12,3.3,15,2.1,12
2015/1/8 2:01,2.9,12,3.1,15,2,11
2015/1/8 2:02,2.3,12,2.8,15,4.1,11
2015/1/8 2:03,2,11,2.3,15,4.5,10
2015/1/8 2:04,1.7,11,2,15,1,7
2015/1/8 2:05,1.7,9,1.7,15,3.9,6
2015/1/8 2:06,1.7,9,1.7,14,3.9,1
2015/1/8 2:07,1.8,8,1.8,14,3.9,2
2015/1/8 2:08,1.8,5,1.8,13,3.8,1
2015/1/8 2:09,1.8,1,1.8,13,3.1,1
2015/1/8 2:10,1.9,16,1.9,12,2.9,16
2015/1/8 2:11,1.9,2,1.9,12,2.6,6
2015/1/8 2:12,1.8,2,1.9,12,3.2,5
2015/1/8 2:13,1.8,2,1.8,11,3.7,2
2015/1/8 2:14,2,2,2,2,2.1,1
2015/1/8 2:15,2,1,2,2,5.2,2
2015/1/8 2:16,2,1,2,2,4.4,2
2015/1/8 2:17,1.8,1,1.9,2,3.5,8
2015/1/8 2:18,1.8,1,1.8,2,3.3,14
2015/1/8 2:19,1.6,16,1.7,2,1.5,11
2015/1/8 2:20,1.5,16,1.6,2,1.3,11
2015/1/8 2:21,1.4,16,1.5,2,1,16
2015/1/8 2:22,1.4,15,1.4,2,2.7,2
2015/1/8 2:23,1.4,16,1.4,2,3,2
2015/1/8 2:24,1.5,15,1.5,1,4.8,16
2015/1/8 2:25,1.6,14,1.6,1,4.7,11
2015/1/8 2:26,1.5,14,1.5,1,2.5,8
2015/1/8 2:27,1.5,14,1.5,1,3.9,7
2015/1/8 2:28,1.5,15,1.5,1,2.6,5
2015/1/8 2:29,1.6,2,1.6,16,5,16
2015/1/8 2:30,1.8,2,1.8,2,3.9,2
2015/1/8 2:31,1.8,3,1.8,2,2.1,16
2015/1/8 2:32,2,2,2,2,6.4,16
2015/1/8 2:33,2,2,2,2,6.9,16
2015/1/8 2:34,1.9,2,2,2,1.9,9
2015/1/8 2:35,1.9,2,1.9,2,4.1,11
2015/1/8 2:36,1.9,1,1.9,2,2.6,14
2015/1/8 2:37,1.8,16,1.9,2,2.7,11
2015/1/8 2:38,1.8,16,1.8,2,2.4,1
2015/1/8 2:39,1.8,16,1.8,2,4.5,16
2015/1/8 2:40,1.7,15,1.8,2,4.5,15
2015/1/8 2:41,1.8,15,1.8,2,2.5,16
2015/1/8 2:42,1.8,15,1.8,2,2.9,2
2015/1/8 2:43,1.6,15,1.7,2,1.4,15
2015/1/8 2:44,1.7,15,1.7,3,2.6,16
2015/1/8 2:45,1.7,15,1.7,2,5.8,15
2015/1/8 2:46,1.9,15,1.9,1,6.2,15
2015/1/8 2:47,2,16,2,16,3,15
2015/1/8 2:48,2.1,15,2.1,15,3.6,14
2015/1/8 2:49,2.2,15,2.2,15,4.5,12
2015/1/8 2:50,2.2,15,2.2,15,3.7,15
2015/1/8 2:51,2.4,15,2.4,15,5.5,15
2015/1/8 2:52,2.5,15,2.5,15,8.2,14
2015/1/8 2:53,3,15,3,15,10.2,15
2015/1/8 2:54,3.1,15,3.1,15,5.8,15
2015/1/8 2:55,3.1,15,3.1,15,6.8,13
2015/1/8 2:56,2.9,15,3.1,15,4.1,14
2015/1/8 2:57,2.9,15,2.9,15,2.2,8
2015/1/8 2:58,2.8,15,2.9,15,3.3,9
2015/1/8 2:59,2.9,15,2.9,15,6.4,12
2015/1/8 3:00,3.1,14,3.1,15,4.9,11
2015/1/8 3:01,2.9,13,3.1,15,4.1,10
2015/1/8 3:02,2.8,12,3,15,3.9,9
2015/1/8 3:03,2.4,11,2.8,15,5.1,9
2015/1/8 3:04,2.4,10,2.4,15,4.5,9
2015/1/8 3:05,2.2,10,2.3,15,4.2,9
2015/1/8 3:06,2.3,10,2.3,14,4.8,9
2015/1/8 3:07,2.3,10,2.3,14,2.5,10
2015/1/8 3:08,2.2,10,2.3,14,1.3,11
2015/1/8 3:09,2,10,2.2,14,4.1,6
2015/1/8 3:10,2,9,2,14,5.7,7
2015/1/8 3:11,2.2,9,2.2,13,5,8
2015/1/8 3:12,2.2,9,2.2,12,4.1,8
2015/1/8 3:13,2.2,9,2.2,11,4.4,9
2015/1/8 3:14,2.2,9,2.2,10,5.5,9
2015/1/8 3:15,2.3,9,2.3,10,6.2,8
2015/1/8 3:16,2.3,9,2.3,10,5.1,8
2015/1/8 3:17,2.4,9,2.4,9,4.2,9
2015/1/8 3:18,2.5,9,2.5,9,3.7,9
2015/1/8 3:19,2.4,9,2.5,9,1.8,11
2015/1/8 3:20,2.2,10,2.4,9,4.2,11
2015/1/8 3:21,2.1,10,2.1,9,4.7,10
2015/1/8 3:22,1.9,10,2.1,9,2,9
2015/1/8 3:23,1.8,10,1.9,9,2.6,10
2015/1/8 3:24,1.8,10,1.8,9,2.4,11
2015/1/8 3:25,1.8,10,1.9,9,3.9,10
2015/1/8 3:26,1.7,10,1.8,9,3.2,10
2015/1/8 3:27,1.7,10,1.7,9,3.6,10
2015/1/8 3:28,1.8,10,1.8,9,4.7,9
2015/1/8 3:29,2,10,2,9,5.1,9
2015/1/8 3:30,2.1,10,2.1,10,4.7,9
2015/1/8 3:31,2,10,2.1,10,3.8,10
2015/1/8 3:32,2.1,10,2.1,10,2.2,13
2015/1/8 3:33,2.2,10,2.2,10,2.1,14
2015/1/8 3:34,2.1,11,2.2,10,2,13
2015/1/8 3:35,2,11,2.1,10,2.1,14
2015/1/8 3:36,1.9,12,2,10,2.2,15
2015/1/8 3:37,1.8,12,1.9,10,1.5,13
2015/1/8 3:38,1.7,12,1.7,10,4.1,8
2015/1/8 3:39,1.6,12,1.6,10,3.8,9
2015/1/8 3:40,1.5,12,1.6,10,3.6,8
2015/1/8 3:41,1.4,12,1.5,10,4.1,9
2015/1/8 3:42,1.4,11,1.5,10,3.8,9
2015/1/8 3:43,1.5,10,1.5,10,3,9
2015/1/8 3:44,1.6,10,1.6,11,3.9,10
2015/1/8 3:45,1.6,10,1.6,11,2.9,10
2015/1/8 3:46,1.7,9,1.7,12,2.9,10
2015/1/8 3:47,1.9,9,1.9,9,2.9,9
2015/1/8 3:48,2,9,2,9,3.8,10
2015/1/8 3:49,1.9,9,2,9,2.7,9
2015/1/8 3:50,1.9,9,2,9,2.2,10
2015/1/8 3:51,1.8,10,1.9,9,1.1,11
2015/1/8 3:52,1.8,10,1.8,9,2,10
2015/1/8 3:53,1.7,10,1.8,9,2.2,10
2015/1/8 3:54,1.6,10,1.7,9,1.9,9
2015/1/8 3:55,1.4,10,1.6,9,0.9,9
2015/1/8 3:56,1.4,10,1.4,9,2.6,9
2015/1/8 3:57,1.2,10,1.4,9,2.5,10
2015/1/8 3:58,1.1,10,1.2,9,2,10
2015/1/8 3:59,1.1,10,1.1,9,2.9,7
2015/1/8 4:00,1.1,10,1.1,9,3.7,9
2015/1/8 4:01,1.3,9,1.3,10,3.9,10
2015/1/8 4:02,1.4,10,1.4,10,2.7,11
2015/1/8 4:03,1.3,10,1.4,10,2.4,12
2015/1/8 4:04,1.4,10,1.4,10,1.8,13
2015/1/8 4:05,1.5,10,1.5,10,2.4,10
2015/1/8 4:06,1.5,11,1.5,10,2.2,10
2015/1/8 4:07,1.7,11,1.7,10,4.8,11
2015/1/8 4:08,1.8,11,1.8,11,3.8,11
2015/1/8 4:09,1.8,11,1.8,11,2.9,9
2015/1/8 4:10,1.6,11,1.7,11,2.1,9
2015/1/8 4:11,1.6,11,1.6,11,3.2,11
2015/1/8 4:12,1.7,11,1.7,11,3.6,13
2015/1/8 4:13,1.8,11,1.8,11,4.2,15
2015/1/8 4:14,2.1,11,2.1,11,5.8,10
2015/1/8 4:15,2.1,11,2.2,11,5.5,8
2015/1/8 4:16,2.2,11,2.2,11,3.8,9
2015/1/8 4:17,2.1,11,2.2,11,5.8,9
2015/1/8 4:18,2.1,11,2.1,11,3.2,10
2015/1/8 4:19,2.2,11,2.2,11,5.4,9
2015/1/8 4:20,2.4,11,2.4,11,4.8,9
2015/1/8 4:21,2.4,11,2.4,11,4.2,9
2015/1/8 4:22,2.4,10,2.4,11,3.8,9
2015/1/8 4:23,2.4,10,2.4,11,6.8,11
2015/1/8 4:24,2.2,9,2.4,11,6.5,9
2015/1/8 4:25,2.2,9,2.2,11,2.9,9
2015/1/8 4:26,2.2,9,2.2,11,4.4,15
2015/1/8 4:27,2.2,10,2.2,11,4.9,14
2015/1/8 4:28,2.3,10,2.3,11,4.8,16
2015/1/8 4:29,2.1,11,2.3,11,2.5,5
2015/1/8 4:30,2,11,2.1,11,4.5,10
2015/1/8 4:31,2,11,2.1,10,3.7,10
2015/1/8 4:32,2.1,11,2.1,10,4.1,10
2015/1/8 4:33,2,12,2.1,10,3.2,9
2015/1/8 4:34,1.9,12,2,10,2.2,10
2015/1/8 4:35,1.9,12,1.9,10,3.2,11
2015/1/8 4:36,2,11,2,10,3.8,11
2015/1/8 4:37,2.1,11,2.1,10,4.8,10
2015/1/8 4:38,2.1,10,2.1,10,5.4,8
2015/1/8 4:39,2.3,10,2.3,10,7,8
2015/1/8 4:40,2.3,10,2.4,10,4.2,9
2015/1/8 4:41,2.3,10,2.3,10,3.8,10
2015/1/8 4:42,2.1,10,2.3,10,4.4,11
2015/1/8 4:43,2.1,10,2.1,10,2.9,8
2015/1/8 4:44,2.2,10,2.2,10,4.8,10
2015/1/8 4:45,2.3,10,2.3,10,3.8,10
2015/1/8 4:46,2.2,10,2.3,10,3.5,12
2015/1/8 4:47,2.3,10,2.3,10,5.2,9
2015/1/8 4:48,2.5,10,2.5,10,6,10
2015/1/8 4:49,2.7,10,2.7,10,6.8,9
2015/1/8 4:50,2.8,10,2.8,10,6.5,9
2015/1/8 4:51,2.9,10,2.9,10,4.8,9
2015/1/8 4:52,3,10,3,10,3.9,11
2015/1/8 4:53,3.2,10,3.2,10,5,10
2015/1/8 4:54,3.2,10,3.2,10,5.1,9
2015/1/8 4:55,3.3,10,3.3,10,5.7,9
2015/1/8 4:56,3.3,10,3.3,10,4.9,9
2015/1/8 4:57,3.3,10,3.3,10,5.1,9
2015/1/8 4:58,3.2,10,3.3,10,4.7,10
2015/1/8 4:59,3.1,10,3.1,10,6.7,10
2015/1/8 5:00,3,10,3.1,10,6,9
2015/1/8 5:01,3.1,10,3.1,10,4.8,9
2015/1/8 5:02,3.1,10,3.2,10,4.9,10
2015/1/8 5:03,3.1,10,3.2,10,4.2,11
2015/1/8 5:04,2.9,10,3.1,10,2.1,12
2015/1/8 5:05,2.7,10,2.9,10,1.9,13
2015/1/8 5:06,2.6,10,2.7,10,3.1,8
2015/1/8 5:07,2.5,10,2.6,10,4.7,10
2015/1/8 5:08,2.5,10,2.5,10,3.3,10
2015/1/8 5:09,2.2,10,2.4,10,3.7,9
2015/1/8 5:10,2.1,10,2.2,10,3.6,10
2015/1/8 5:11,2.1,10,2.1,10,5,9
2015/1/8 5:12,2.1,10,2.1,10,5.1,10
2015/1/8 5:13,2,10,2.1,10,4.3,9
2015/1/8 5:14,2.2,10,2.2,10,4.5,9
2015/1/8 5:15,2.3,10,2.3,10,3.3,11
2015/1/8 5:16,2.3,10,2.3,10,2.9,9
2015/1/8 5:17,2.3,9,2.4,10,3.6,8
2015/1/8 5:18,2.4,9,2.4,10,3.6,9
2015/1/8 5:19,2.4,9,2.4,10,3.9,10
2015/1/8 5:20,2.4,9,2.4,10,5.5,10
2015/1/8 5:21,2.4,9,2.5,9,5.1,10
2015/1/8 5:22,2.5,9,2.5,9,5.8,10
2015/1/8 5:23,2.4,10,2.5,9,3.8,11
2015/1/8 5:24,2.4,10,2.4,9,3.2,12
2015/1/8 5:25,2.3,10,2.4,9,2.2,12
2015/1/8 5:26,2.3,10,2.3,9,2.2,9
2015/1/8 5:27,2.2,10,2.3,9,2,8
2015/1/8 5:28,2.2,10,2.2,9,2.9,11
2015/1/8 5:29,2.2,11,2.2,9,2.6,11
2015/1/8 5:30,2.1,11,2.2,9,2.1,12
2015/1/8 5:31,1.9,11,2.1,9,2,10
2015/1/8 5:32,1.7,11,1.9,9,2.5,9
2015/1/8 5:33,1.7,11,1.7,10,3,10
2015/1/8 5:34,1.6,10,1.7,10,2.6,9
2015/1/8 5:35,1.6,10,1.6,10,3.9,9
2015/1/8 5:36,1.7,10,1.7,10,4.3,10
2015/1/8 5:37,1.8,10,1.8,10,3.8,9
2015/1/8 5:38,1.8,10,1.8,10,3.5,9
2015/1/8 5:39,1.7,10,1.8,11,3.2,10
2015/1/8 5:40,1.8,10,1.8,11,3.9,15
2015/1/8 5:41,2,11,2,10,4.5,15
2015/1/8 5:42,2.2,11,2.2,11,4.9,14
2015/1/8 5:43,2.2,12,2.2,11,3,13
2015/1/8 5:44,2.2,12,2.2,11,2.1,13
2015/1/8 5:45,2.2,12,2.2,11,2.6,12
2015/1/8 5:46,2.2,12,2.2,11,4.3,9
2015/1/8 5:47,2.1,12,2.2,11,3.5,8
2015/1/8 5:48,2.2,12,2.2,11,3,9
2015/1/8 5:49,2.1,12,2.2,11,3,9
2015/1/8 5:50,2,12,2.1,11,2.9,12
2015/1/8 5:51,2,12,2,11,4.4,13
2015/1/8 5:52,1.8,12,1.9,11,3.1,14
2015/1/8 5:53,1.8,12,1.8,12,3.2,13
2015/1/8 5:54,1.9,12,1.9,12,2.7,13
2015/1/8 5:55,2,12,2,12,2.7,13
2015/1/8 5:56,1.9,12,2,12,2.6,13
2015/1/8 5:57,2.1,12,2.1,12,5.6,9
2015/1/8 5:58,2.2,12,2.2,12,5.4,10
2015/1/8 5:59,2.2,12,2.2,12,5.1,10
2015/1/8 6:00,2.4,11,2.4,11,5.5,9
2015/1/8 6:01,2.3,11,2.4,11,3.8,9
2015/1/8 6:02,2.3,11,2.3,11,2.4,11
2015/1/8 6:03,2.2,10,2.3,11,3.7,9
2015/1/8 6:04,2.2,10,2.2,11,3.9,10
2015/1/8 6:05,2.2,10,2.2,11,3.6,11
2015/1/8 6:06,2.1,10,2.2,11,2.4,12
2015/1/8 6:07,2,10,2.2,11,3,8
2015/1/8 6:08,2,10,2,11,5.2,9
2015/1/8 6:09,2.1,10,2.2,11,4.5,8
2015/1/8 6:10,2,10,2.1,11,4.7,10
2015/1/8 6:11,1.9,10,2,11,2.6,7
2015/1/8 6:12,2.2,10,2.2,11,5.6,10
2015/1/8 6:13,2.2,10,2.3,10,5.7,9
2015/1/8 6:14,2.2,11,2.2,10,2.5,13
2015/1/8 6:15,2.3,10,2.3,10,3.7,10
2015/1/8 6:16,2.6,10,2.6,10,6.2,10
2015/1/8 6:17,2.7,10,2.7,10,5.2,10
2015/1/8 6:18,2.5,10,2.7,10,3.7,8
2015/1/8 6:19,2.4,10,2.5,10,2.1,10
2015/1/8 6:20,2.3,10,2.4,10,2.9,10
2015/1/8 6:21,2.3,10,2.3,10,3.2,9
2015/1/8 6:22,2.1,10,2.3,10,2.7,9
2015/1/8 6:23,2,10,2.1,10,2.9,10
2015/1/8 6:24,2,10,2,10,2.5,10
2015/1/8 6:25,1.9,10,2,10,2.5,10
2015/1/8 6:26,1.6,10,1.9,10,2.2,11
2015/1/8 6:27,1.6,10,1.6,10,3,9
2015/1/8 6:28,1.6,10,1.6,10,2.4,10
2015/1/8 6:29,1.6,10,1.6,10,1.9,8
2015/1/8 6:30,1.6,9,1.6,10,2.4,7
2015/1/8 6:31,1.4,10,1.5,10,1,7
2015/1/8 6:32,1.3,10,1.4,10,1.4,1
2015/1/8 6:33,1.3,10,1.3,10,1.8,16
2015/1/8 6:34,1.3,10,1.3,10,1.8,16
2015/1/8 6:35,1.2,8,1.3,10,1.8,6
2015/1/8 6:36,1.2,7,1.2,10,1.8,13
2015/1/8 6:37,1.1,15,1.2,10,2.1,13
2015/1/8 6:38,1.2,1,1.2,10,3.6,9
2015/1/8 6:39,1.3,14,1.3,10,3.1,11
2015/1/8 6:40,1.4,13,1.4,9,3.9,8
2015/1/8 6:41,1.7,11,1.7,11,5.5,9
2015/1/8 6:42,1.8,10,1.8,10,4.7,9
2015/1/8 6:43,1.9,10,2,10,4.8,9
2015/1/8 6:44,2,10,2,10,4.5,9
2015/1/8 6:45,2.2,10,2.2,10,3.9,11
2015/1/8 6:46,2.4,10,2.4,10,3.7,10
2015/1/8 6:47,2.5,10,2.5,10,4.4,10
2015/1/8 6:48,2.4,10,2.5,10,3.9,11
2015/1/8 6:49,2.4,10,2.4,10,2.6,10
2015/1/8 6:50,2.3,10,2.4,10,2.7,11
2015/1/8 6:51,2.1,10,2.3,10,1.8,11
2015/1/8 6:52,2,11,2.1,10,1,10
2015/1/8 6:53,1.9,11,2,10,2.7,11
2015/1/8 6:54,2,11,2,10,3.6,10
2015/1/8 6:55,2.1,11,2.1,10,5.7,9
2015/1/8 6:56,2.1,11,2.1,10,5.6,8
2015/1/8 6:57,2.1,11,2.2,10,5.2,9
2015/1/8 6:58,2.1,10,2.1,10,3.2,9
2015/1/8 6:59,2.1,10,2.1,10,2.5,9
2015/1/8 7:00,2.1,11,2.1,10,2.7,10
2015/1/8 7:01,2.2,11,2.2,11,3.7,14
2015/1/8 7:02,2.4,10,2.4,10,3.3,10
2015/1/8 7:03,2.5,10,2.5,10,4.1,10
2015/1/8 7:04,2.6,10,2.6,10,5.6,10
2015/1/8 7:05,2.6,10,2.6,10,6,10
2015/1/8 7:06,2.7,10,2.7,10,4.9,10
2015/1/8 7:07,2.5,10,2.7,10,3.8,10
2015/1/8 7:08,2.5,11,2.5,10,2.1,13
2015/1/8 7:09,2.6,11,2.6,10,3.8,16
2015/1/8 7:10,2.6,11,2.6,10,3.6,15
2015/1/8 7:11,2.5,11,2.6,10,2,15
2015/1/8 7:12,2.4,12,2.5,10,2.9,14
2015/1/8 7:13,2.5,12,2.5,10,4.4,11
2015/1/8 7:14,2.7,12,2.7,10,7.4,9
2015/1/8 7:15,2.5,12,2.7,10,5.1,12
2015/1/8 7:16,2.4,12,2.5,10,2,8
2015/1/8 7:17,2.3,12,2.3,12,3,9
2015/1/8 7:18,2.3,12,2.3,12,2.7,9
2015/1/8 7:19,2.3,11,2.4,12,3.6,9
2015/1/8 7:20,2.2,11,2.3,12,2.6,9
2015/1/8 7:21,2.1,10,2.2,12,1.3,8
2015/1/8 7:22,2,10,2.1,12,1.3,1
2015/1/8 7:23,1.8,9,2,12,2.2,7
2015/1/8 7:24,1.4,9,1.7,12,2.6,7
2015/1/8 7:25,1.3,8,1.4,12,2.4,8
2015/1/8 7:26,1.2,8,1.3,11,1.1,9
2015/1/8 7:27,1.1,9,1.2,11,0.9,11
2015/1/8 7:28,1,10,1.1,11,1.4,12
2015/1/8 7:29,1,10,1,11,1.3,12
2015/1/8 7:30,0.9,10,1,11,1.3,11
2015/1/8 7:31,1,10,1,10,1.4,10
2015/1/8 7:32,1.1,10,1.1,10,2.2,10
2015/1/8 7:33,1.1,10,1.1,9,2.6,11
2015/1/8 7:34,1.1,11,1.1,9,2,11
2015/1/8 7:35,1.1,11,1.1,8,1.9,12
2015/1/8 7:36,1.2,11,1.2,8,2.1,10
2015/1/8 7:37,1.3,11,1.3,11,3,10
2015/1/8 7:38,1.4,11,1.4,11,2.7,11
2015/1/8 7:39,1.5,11,1.5,11,2.2,11
2015/1/8 7:40,1.6,11,1.6,11,2.6,10
2015/1/8 7:41,1.7,11,1.7,11,2.6,12
2015/1/8 7:42,1.8,11,1.8,11,2.1,10
2015/1/8 7:43,1.7,11,1.8,11,2.1,11
2015/1/8 7:44,1.8,11,1.8,11,3.2,10
2015/1/8 7:45,1.8,10,1.8,11,2,9
2015/1/8 7:46,1.8,10,1.8,11,2.4,9
2015/1/8 7:47,1.6,10,1.8,11,1.4,9
2015/1/8 7:48,1.5,10,1.6,11,2.1,3
2015/1/8 7:49,1.4,10,1.4,11,3.1,15
2015/1/8 7:50,1.4,11,1.5,11,2.7,16
2015/1/8 7:51,1.3,12,1.4,11,2.2,14
2015/1/8 7:52,1.3,12,1.3,11,2.5,15
2015/1/8 7:53,1.4,11,1.4,11,2.6,9
2015/1/8 7:54,1.4,12,1.4,11,3.2,9
2015/1/8 7:55,1.4,12,1.4,10,3.3,10
2015/1/8 7:56,1.6,12,1.6,10,4.2,12
2015/1/8 7:57,1.8,12,1.8,12,3.2,11
2015/1/8 7:58,1.9,12,1.9,12,2.7,12
2015/1/8 7:59,2,12,2,12,2.7,14
2015/1/8 8:00,1.9,12,2,12,1.8,14
2015/1/8 8:01,2.1,11,2.1,11,4.5,8
2015/1/8 8:02,2.1,11,2.1,11,4.1,8
2015/1/8 8:03,2,11,2.1,11,3,13
2015/1/8 8:04,2.1,12,2.1,11,3,13
2015/1/8 8:05,2.2,12,2.3,12,4.1,10
2015/1/8 8:06,2,11,2.2,12,2.2,9
2015/1/8 8:07,1.8,11,2,12,2.7,10
2015/1/8 8:08,1.6,11,1.7,12,1.9,14
2015/1/8 8:09,1.6,11,1.6,12,2.6,16
2015/1/8 8:10,1.6,12,1.6,12,2.4,16
2015/1/8 8:11,1.4,12,1.6,12,1.3,1
2015/1/8 8:12,1.3,12,1.4,12,1.3,10
2015/1/8 8:13,1.1,12,1.3,12,0.4,2
2015/1/8 8:14,0.8,13,1.1,12,1.1,2
2015/1/8 8:15,0.7,14,0.8,12,0.4,16
2015/1/8 8:16,0.6,14,0.7,11,0.8,13
2015/1/8 8:17,0.6,13,0.6,11,1.1,8
2015/1/8 8:18,0.7,13,0.7,11,1.1,9
2015/1/8 8:19,0.5,11,0.6,11,0.6,8
2015/1/8 8:20,0.4,10,0.5,12,0.4,10
2015/1/8 8:21,0.4,10,0.4,12,1.6,9
2015/1/8 8:22,0.4,9,0.4,12,1.1,8
2015/1/8 8:23,0.5,9,0.5,12,1.4,8
2015/1/8 8:24,0.5,9,0.5,13,1.3,9
2015/1/8 8:25,0.6,9,0.6,14,1.1,9
2015/1/8 8:26,0.6,9,0.6,13,1.3,13
2015/1/8 8:27,0.6,10,0.6,13,0.8,13
2015/1/8 8:28,0.6,10,0.6,13,1,11
2015/1/8 8:29,0.7,10,0.7,10,1.6,12
2015/1/8 8:30,0.8,11,0.8,11,2.2,14
2015/1/8 8:31,0.9,11,0.9,11,2.1,14
2015/1/8 8:32,0.9,11,0.9,11,1.3,12
2015/1/8 8:33,0.9,11,0.9,11,1.9,9
2015/1/8 8:34,1,11,1,11,2.6,8
2015/1/8 8:35,1.1,11,1.1,11,3.2,9
2015/1/8 8:36,1.2,11,1.2,11,2.7,9
2015/1/8 8:37,1.2,11,1.2,11,2.4,9
2015/1/8 8:38,1.4,11,1.4,11,2.9,10
2015/1/8 8:39,1.4,11,1.4,11,2.5,11
2015/1/8 8:40,1.5,10,1.5,10,3,11
2015/1/8 8:41,1.6,10,1.6,10,2.9,11
2015/1/8 8:42,1.7,10,1.7,10,2.9,11
2015/1/8 8:43,1.8,10,1.8,10,2.7,10
2015/1/8 8:44,1.9,10,1.9,10,2.4,10
2015/1/8 8:45,1.8,10,1.9,10,1.5,8
2015/1/8 8:46,1.6,10,1.8,10,0.6,9
2015/1/8 8:47,1.6,10,1.7,10,2.1,12
2015/1/8 8:48,1.6,10,1.6,10,3.1,9
2015/1/8 8:49,1.5,10,1.6,10,2.2,9
2015/1/8 8:50,1.3,10,1.5,10,0.8,14
2015/1/8 8:51,1.2,10,1.3,10,1,13
2015/1/8 8:52,1.1,11,1.2,10,2.6,12
2015/1/8 8:53,1.1,11,1.1,10,2.5,12
2015/1/8 8:54,1.1,11,1.1,10,2.6,12
2015/1/8 8:55,1.2,11,1.2,10,3.5,12
2015/1/8 8:56,1.4,11,1.4,10,2.9,10
2015/1/8 8:57,1.6,11,1.6,10,3.1,11
2015/1/8 8:58,1.6,11,1.6,10,4.3,9
2015/1/8 8:59,1.6,11,1.6,11,2.9,9
2015/1/8 9:00,1.8,11,1.8,11,2.2,10
2015/1/8 9:01,1.9,11,1.9,11,2.6,11
2015/1/8 9:02,1.9,11,1.9,11,2.1,10
2015/1/8 9:03,1.8,11,1.9,11,1.8,8
2015/1/8 9:04,1.7,11,1.8,11,2.1,11
2015/1/8 9:05,1.7,11,1.7,11,3.7,13
2015/1/8 9:06,1.9,11,1.9,11,4.2,12
2015/1/8 9:07,1.9,11,1.9,11,5,10
2015/1/8 9:08,2.1,11,2.1,11,4.4,9
2015/1/8 9:09,2.1,11,2.1,11,2.9,12
2015/1/8 9:10,2.1,11,2.1,11,2.4,14
2015/1/8 9:11,2.1,11,2.1,11,3.2,12
2015/1/8 9:12,2.2,11,2.2,11,3.2,12
2015/1/8 9:13,2.4,11,2.4,11,3.8,9
2015/1/8 9:14,2.5,11,2.5,11,3.1,10
2015/1/8 9:15,2.4,11,2.5,11,2.9,11
2015/1/8 9:16,2.3,11,2.4,11,2.9,10
2015/1/8 9:17,2,11,2.2,11,1.9,10
2015/1/8 9:18,1.9,11,2,11,2,9
2015/1/8 9:19,1.8,11,1.9,11,2.4,11
2015/1/8 9:20,1.8,11,1.8,11,2.1,11
2015/1/8 9:21,1.7,11,1.8,11,1.8,12
2015/1/8 9:22,1.7,11,1.7,11,3,13
2015/1/8 9:23,1.6,11,1.7,11,3,13
2015/1/8 9:24,1.5,11,1.6,11,2.6,12
2015/1/8 9:25,1.5,11,1.5,11,3.2,10
2015/1/8 9:26,1.5,11,1.5,11,3.9,9
2015/1/8 9:27,1.7,11,1.7,11,4.2,10
2015/1/8 9:28,1.9,11,1.9,11,4.5,9
2015/1/8 9:29,2,11,2,11,4.7,9
2015/1/8 9:30,2.1,11,2.1,11,3.8,9
2015/1/8 9:31,2.1,11,2.1,11,2.7,12
2015/1/8 9:32,2.1,11,2.2,11,2.7,11
2015/1/8 9:33,2.1,10,2.1,11,3.8,9
2015/1/8 9:34,2.2,10,2.2,11,3.7,9
2015/1/8 9:35,2.3,10,2.3,10,5.1,11
2015/1/8 9:36,2.3,10,2.3,10,3.6,11
2015/1/8 9:37,2.1,11,2.3,10,3.1,9
2015/1/8 9:38,2,11,2.1,10,3.7,9
2015/1/8 9:39,2.1,11,2.1,10,6.3,10
2015/1/8 9:40,2.3,11,2.3,10,6.4,10
2015/1/8 9:41,2.6,10,2.6,10,7.5,10
2015/1/8 9:42,2.9,10,2.9,10,6.3,11
2015/1/8 9:43,3.1,10,3.1,10,6.8,10
2015/1/8 9:44,3.2,11,3.2,10,4.3,12
2015/1/8 9:45,3.2,11,3.2,10,5.5,10
2015/1/8 9:46,3.3,11,3.3,11,5.7,12
2015/1/8 9:47,3.6,10,3.6,10,5.6,10
2015/1/8 9:48,3.7,10,3.7,11,5.5,9
2015/1/8 9:49,3.8,10,3.8,11,6.2,11
2015/1/8 9:50,3.7,11,3.8,11,5.6,9
2015/1/8 9:51,3.4,11,3.7,11,4.1,10
2015/1/8 9:52,3.3,11,3.4,11,4.7,11
2015/1/8 9:53,3.1,10,3.3,11,3.6,10
2015/1/8 9:54,2.9,10,3,11,1.9,9
2015/1/8 9:55,2.7,10,2.9,11,1.6,9
2015/1/8 9:56,2.5,10,2.7,11,4.7,10
2015/1/8 9:57,2.4,10,2.5,11,5.4,9
2015/1/8 9:58,2.4,10,2.4,11,5.1,10
2015/1/8 9:59,2.2,10,2.4,10,5.2,9
2015/1/8 10:00,2.2,10,2.2,11,4.9,11
2015/1/8 10:01,2.3,10,2.3,10,4.5,9
2015/1/8 10:02,2.1,10,2.3,10,3.8,9
2015/1/8 10:03,2.1,10,2.1,10,3.5,10
2015/1/8 10:04,2.3,10,2.3,10,4.5,9
2015/1/8 10:05,2.5,10,2.5,10,4.8,9
2015/1/8 10:06,2.7,10,2.7,10,4.9,10
2015/1/8 10:07,2.7,10,2.7,10,4.4,10
2015/1/8 10:08,2.7,10,2.7,10,5.5,9
2015/1/8 10:09,2.6,10,2.8,10,4.9,9
2015/1/8 10:10,2.5,10,2.6,10,3.2,13
2015/1/8 10:11,2.4,11,2.5,10,3.6,12
2015/1/8 10:12,2.4,11,2.4,10,1.6,12
2015/1/8 10:13,2.3,11,2.4,10,2.7,12
2015/1/8 10:14,2.2,11,2.3,10,2.1,8
2015/1/8 10:15,2.1,11,2.2,10,3.3,13
2015/1/8 10:16,1.9,11,2.1,10,2.7,13
2015/1/8 10:17,1.7,11,1.9,10,2,10
2015/1/8 10:18,1.5,11,1.7,10,3,10
2015/1/8 10:19,1.6,11,1.6,10,4.4,10
2015/1/8 10:20,1.5,11,1.6,10,3.9,8
2015/1/8 10:21,1.5,11,1.5,11,2.5,14
2015/1/8 10:22,1.5,11,1.5,11,4.5,9
2015/1/8 10:23,1.7,10,1.7,11,6.4,10
2015/1/8 10:24,2,11,2,11,6.2,10
2015/1/8 10:25,2.3,11,2.3,11,7.6,9
2015/1/8 10:26,2.7,11,2.7,11,6.2,11
2015/1/8 10:27,2.9,11,2.9,11,5.1,10
2015/1/8 10:28,3.1,11,3.1,11,5.2,10
2015/1/8 10:29,3.1,11,3.2,11,5.7,9
2015/1/8 10:30,3.1,11,3.1,11,2.4,16
2015/1/8 10:31,3.1,11,3.1,11,3.9,12
2015/1/8 10:32,2.9,11,3,11,1.5,11
2015/1/8 10:33,2.7,11,2.9,11,2.7,13
2015/1/8 10:34,2.4,12,2.7,11,2.5,15
2015/1/8 10:35,2,12,2.4,11,1.5,11
2015/1/8 10:36,1.6,12,2,11,0.5,6
2015/1/8 10:37,1.3,12,1.5,11,1.6,1
2015/1/8 10:38,1,12,1.2,11,1.4,9
2015/1/8 10:39,0.9,13,1,11,2.1,12
2015/1/8 10:40,0.9,12,0.9,11,2.4,13
2015/1/8 10:41,0.8,12,0.9,11,2,12
2015/1/8 10:42,0.9,12,0.9,11,1.6,12
2015/1/8 10:43,1,12,1,12,3.7,14
2015/1/8 10:44,1.1,12,1.1,12,4.1,13
2015/1/8 10:45,1.2,12,1.2,12,2.5,14
2015/1/8 10:46,1.3,12,1.3,12,2.2,9
2015/1/8 10:47,1.4,12,1.4,12,4.2,12
2015/1/8 10:48,1.4,12,1.4,12,2.9,12
2015/1/8 10:49,1.6,12,1.6,12,3.7,11
2015/1/8 10:50,1.7,12,1.7,12,3.7,11
2015/1/8 10:51,1.7,12,1.7,12,3.9,9
2015/1/8 10:52,1.9,12,1.9,12,4.3,12
2015/1/8 10:53,1.9,12,1.9,12,4.5,12
2015/1/8 10:54,1.9,12,1.9,12,4.7,11
2015/1/8 10:55,2.1,11,2.1,11,4.9,10
2015/1/8 10:56,2.2,11,2.2,11,2.9,11
2015/1/8 10:57,2.1,12,2.2,11,2.7,10
2015/1/8 10:58,2.3,11,2.3,12,5.2,10
2015/1/8 10:59,2.3,11,2.3,12,3.8,9
2015/1/8 11:00,2.3,11,2.3,12,4.4,11
2015/1/8 11:01,2.3,11,2.3,12,3.8,12
2015/1/8 11:02,2.3,11,2.4,11,3.6,12
2015/1/8 11:03,2.2,11,2.3,11,2.6,11
2015/1/8 11:04,2.1,11,2.2,11,2.9,11
2015/1/8 11:05,1.9,11,2.1,11,1.8,10
2015/1/8 11:06,1.7,11,1.8,11,1.8,10
2015/1/8 11:07,1.7,11,1.8,11,2.2,14
2015/1/8 11:08,1.6,12,1.7,11,2.6,14
2015/1/8 11:09,1.6,12,1.6,11,3.1,13
2015/1/8 11:10,1.5,12,1.6,11,2.6,14
2015/1/8 11:11,1.6,12,1.6,11,3.9,14
2015/1/8 11:12,1.6,12,1.6,11,4.5,13
2015/1/8 11:13,1.7,12,1.7,11,4.2,10
2015/1/8 11:14,1.7,12,1.7,11,4.1,10
2015/1/8 11:15,1.7,12,1.7,11,2.2,9
2015/1/8 11:16,1.8,12,1.8,11,2.9,9
2015/1/8 11:17,1.9,12,1.9,12,3.2,10
2015/1/8 11:18,2,11,2,12,3.6,10
2015/1/8 11:19,2,11,2,12,2.7,12
2015/1/8 11:20,1.9,11,2,12,1.4,14
2015/1/8 11:21,1.7,11,1.9,12,3.7,12